Location: Fernhill
(41.0167°S, 175.6333°E)
Time: 11:17:00
(UTC+00:00)

USA 59 Rocket - Pass Details

Date: 08 November 2025
Orbit: 370 x 1678 km, 63.3° (Epoch: 10 December)

Event Time Altitude Azimuth Distance (km) Brightness Sun altitude
Rises 11:04:58 0° 218° (SW) 4,965 5.6 -30.8°
Reaches altitude 10° 11:08:44 10° 209° (SSW) 3,940 5.0 -31.0°
Maximum altitude 11:17:45 35° 146° (SSE) 2,265 3.1 -31.4°
Enters shadow 11:24:13 14° 88° (E) 3,024 3.4 -31.6°
